When you browse on this site, cookies collect data to enhance your experience and personalize the content and advertising you see.
Visit our Privacy Policy to learn more. By continuing to use the site, you agree to this use of cookies and data.
  • In Romania
  • List of Countries
  • For 7 days
  • Water Temperature
  • Satellite Maps
  • Weather Map
  • Weather Widgets
  • user-avatar
    Login

    Hourly Weather Lopatino

    Today, 24 March, Sunday

    Time Temperature Precipitation Wind Pressure Humidity
    00:00 -4°C° 0 mm 2 mps 762 mmHg 94%
    01:00 -4°C° 0 mm 2 mps 762 mmHg 94%
    02:00 -4°C° 0 mm 2 mps 762 mmHg 93%
    03:00 -4°C° 0 mm 2 mps 761 mmHg 93%
    04:00 -4°C° 0 mm 2 mps 761 mmHg 93%
    05:00 -4°C° 0 mm 2 mps 761 mmHg 93%
    06:00 -4°C° 0 mm 2 mps 761 mmHg 93%
    07:00 -3°C° 0 mm 2 mps 761 mmHg 92%
    08:00 -2°C° 0 mm 2 mps 761 mmHg 91%
    09:00 -1°C° 0 mm 2 mps 761 mmHg 91%
    10:00 -1°C° 0.1 mm 2 mps 761 mmHg 93%
    11:00 -1°C° 0.1 mm 2 mps 760 mmHg 95%
    12:00 +1°C° 0.1 mm 2 mps 760 mmHg 97%
    13:00 +1°C° 0.1 mm 2 mps 759 mmHg 97%
    14:00 0°C° 0.1 mm 3 mps 759 mmHg 98%
    15:00 +1°C° 0 mm 2 mps 758 mmHg 98%
    16:00 0°C° 0 mm 3 mps 758 mmHg 98%
    17:00 0°C° 0 mm 3 mps 757 mmHg 98%
    18:00 0°C° 0 mm 3 mps 757 mmHg 98%
    19:00 -2°C° 0 mm 4 mps 755 mmHg 97%
    20:00 -2°C° 0 mm 4 mps 754 mmHg 96%
    21:00 -2°C° 0 mm 5 mps 753 mmHg 96%
    22:00 -1°C° 0.7 mm 5 mps 752 mmHg 96%
    23:00 -2°C° 0.7 mm 6 mps 751 mmHg 95%

    Tomorrow, 25 March, Monday

    Time Temperature Precipitation Wind Pressure Humidity
    00:00 -2°C° 0.7 mm 6 mps 749 mmHg 95%
    01:00 -1°C° 1.4 mm 6 mps 748 mmHg 96%
    02:00 0°C° 1.4 mm 5 mps 747 mmHg 97%
    03:00 0°C° 1.4 mm 5 mps 746 mmHg 98%
    04:00 0°C° 0.2 mm 5 mps 745 mmHg 96%
    05:00 -1°C° 0.2 mm 5 mps 744 mmHg 93%
    06:00 -1°C° 0.2 mm 5 mps 744 mmHg 91%
    07:00 -2°C° 0.1 mm 6 mps 744 mmHg 91%
    08:00 -2°C° 0.1 mm 6 mps 744 mmHg 91%
    09:00 -2°C° 0.1 mm 7 mps 744 mmHg 91%
    10:00 -2°C° 0.3 mm 7 mps 744 mmHg 90%
    11:00 -2°C° 0.3 mm 8 mps 745 mmHg 89%
    12:00 -3°C° 0.3 mm 9 mps 745 mmHg 88%
    13:00 -3°C° 0.2 mm 9 mps 746 mmHg 87%
    14:00 -2°C° 0.2 mm 8 mps 746 mmHg 86%
    15:00 -2°C° 0.2 mm 8 mps 747 mmHg 85%
    16:00 -2°C° 0.1 mm 7 mps 748 mmHg 86%
    17:00 -2°C° 0.1 mm 7 mps 749 mmHg 87%
    18:00 -2°C° 0.1 mm 6 mps 749 mmHg 88%
    19:00 -2°C° 0.1 mm 6 mps 750 mmHg 87%
    20:00 -2°C° 0.1 mm 6 mps 751 mmHg 86%
    21:00 -2°C° 0.1 mm 6 mps 751 mmHg 85%
    22:00 -3°C° 0 mm 6 mps 752 mmHg 86%
    23:00 -3°C° 0 mm 6 mps 753 mmHg 87%

    Day after tomorrow, 26 March, Tuesday

    Time Temperature Precipitation Wind Pressure Humidity
    00:00 -4°C° 0 mm 6 mps 753 mmHg 89%
    01:00 -4°C° 0 mm 5 mps 754 mmHg 89%
    02:00 -5°C° 0 mm 5 mps 755 mmHg 89%
    03:00 -4°C° 0 mm 4 mps 755 mmHg 89%
    04:00 -4°C° 0 mm 4 mps 756 mmHg 90%
    05:00 -5°C° 0 mm 4 mps 757 mmHg 90%
    06:00 -5°C° 0 mm 4 mps 757 mmHg 91%
    07:00 -4°C° 0 mm 4 mps 757 mmHg 90%
    08:00 -3°C° 0 mm 4 mps 758 mmHg 88%
    09:00 -2°C° 0 mm 3 mps 758 mmHg 87%
    10:00 -2°C° 0 mm 4 mps 758 mmHg 87%
    11:00 -1°C° 0 mm 4 mps 759 mmHg 87%
    12:00 -1°C° 0 mm 4 mps 759 mmHg 87%
    13:00 -1°C° 0 mm 4 mps 759 mmHg 86%
    14:00 -1°C° 0 mm 4 mps 759 mmHg 85%
    15:00 -1°C° 0 mm 4 mps 759 mmHg 84%
    16:00 -1°C° 0 mm 4 mps 758 mmHg 85%
    17:00 -2°C° 0 mm 4 mps 758 mmHg 87%
    18:00 -2°C° 0 mm 4 mps 758 mmHg 88%
    19:00 -2°C° 0.1 mm 5 mps 757 mmHg 86%
    20:00 -2°C° 0.1 mm 6 mps 757 mmHg 84%
    21:00 -2°C° 0.1 mm 7 mps 757 mmHg 83%
    22:00 -1°C° 0.5 mm 7 mps 756 mmHg 83%
    23:00 -1°C° 0.5 mm 7 mps 756 mmHg 84%

    27 March, Wednesday

    Time Temperature Precipitation Wind Pressure Humidity
    00:00 0°C° 0.5 mm 8 mps 755 mmHg 84%
    01:00 0°C° 0.7 mm 8 mps 755 mmHg 84%
    02:00 0°C° 0.7 mm 8 mps 755 mmHg 83%
    03:00 0°C° 0.7 mm 8 mps 755 mmHg 82%
    04:00 0°C° 0.7 mm 8 mps 755 mmHg 83%
    05:00 0°C° 0.7 mm 8 mps 755 mmHg 85%
    06:00 0°C° 0.7 mm 8 mps 755 mmHg 86%
    07:00 0°C° 0.9 mm 8 mps 755 mmHg 86%
    08:00 -1°C° 0.9 mm 7 mps 755 mmHg 86%
    09:00 -1°C° 0.9 mm 7 mps 755 mmHg 86%
    10:00 -1°C° 0.8 mm 7 mps 755 mmHg 87%
    11:00 -1°C° 0.8 mm 7 mps 755 mmHg 89%
    12:00 -1°C° 0.8 mm 7 mps 756 mmHg 91%
    13:00 -1°C° 0.6 mm 6 mps 756 mmHg 93%
    14:00 0°C° 0.6 mm 5 mps 756 mmHg 95%
    15:00 0°C° 0.6 mm 4 mps 757 mmHg 97%
    16:00 -1°C° 0.1 mm 4 mps 757 mmHg 97%
    17:00 0°C° 0.1 mm 3 mps 757 mmHg 97%
    18:00 +1°C° 0.1 mm 2 mps 757 mmHg 97%
    19:00 +1°C° 0 mm 2 mps 758 mmHg 97%
    20:00 +1°C° 0 mm 2 mps 758 mmHg 96%
    21:00 +1°C° 0 mm 2 mps 758 mmHg 96%
    22:00 +1°C° 0 mm 1 mps 758 mmHg 95%
    23:00 +1°C° 0 mm 1 mps 758 mmHg 95%

    28 March, Thursday

    Time Temperature Precipitation Wind Pressure Humidity
    00:00 0°C° 0 mm 1 mps 758 mmHg 94%
    01:00 0°C° 0 mm 1 mps 758 mmHg 94%
    02:00 -1°C° 0 mm 1 mps 758 mmHg 94%
    03:00 -1°C° 0 mm 1 mps 758 mmHg 94%
    04:00 -1°C° 0 mm 1 mps 758 mmHg 92%
    05:00 -1°C° 0 mm 1 mps 758 mmHg 91%
    06:00 -2°C° 0 mm 1 mps 758 mmHg 90%
    07:00 -1°C° 0 mm 1 mps 758 mmHg 88%
    08:00 -2°C° 0 mm 2 mps 758 mmHg 86%
    09:00 -1°C° 0 mm 2 mps 758 mmHg 83%
    10:00 +1°C° 0 mm 2 mps 758 mmHg 81%
    11:00 +1°C° 0 mm 2 mps 758 mmHg 79%
    12:00 +2°C° 0 mm 2 mps 757 mmHg 76%
    13:00 +2°C° 0 mm 2 mps 757 mmHg 75%
    14:00 +2°C° 0 mm 2 mps 757 mmHg 73%
    15:00 +1°C° 0 mm 3 mps 757 mmHg 72%
    16:00 +1°C° 0 mm 3 mps 757 mmHg 76%
    17:00 0°C° 0 mm 3 mps 757 mmHg 80%
    18:00 -1°C° 0 mm 3 mps 757 mmHg 84%
    19:00 -1°C° 0 mm 3 mps 758 mmHg 86%
    20:00 -1°C° 0 mm 3 mps 758 mmHg 88%
    21:00 -2°C° 0 mm 3 mps 758 mmHg 89%
    22:00 -1°C° 0 mm 3 mps 758 mmHg 90%
    23:00 -1°C° 0 mm 3 mps 758 mmHg 91%

    29 March, Friday

    Time Temperature Precipitation Wind Pressure Humidity
    00:00 -1°C° 0 mm 3 mps 758 mmHg 92%
    01:00 -2°C° 0 mm 4 mps 758 mmHg 91%
    02:00 -2°C° 0 mm 4 mps 759 mmHg 91%
    03:00 -2°C° 0 mm 4 mps 759 mmHg 90%
    04:00 -3°C° 0 mm 4 mps 759 mmHg 89%
    05:00 -3°C° 0 mm 4 mps 759 mmHg 87%
    06:00 -4°C° 0 mm 4 mps 760 mmHg 86%
    07:00 -3°C° 0 mm 4 mps 760 mmHg 82%
    08:00 -2°C° 0 mm 3 mps 760 mmHg 77%
    09:00 -1°C° 0 mm 3 mps 760 mmHg 72%
    10:00 -1°C° 0 mm 3 mps 760 mmHg 71%
    11:00 -1°C° 0 mm 4 mps 760 mmHg 69%
    12:00 0°C° 0 mm 4 mps 759 mmHg 67%
    13:00 0°C° 0 mm 4 mps 759 mmHg 67%
    14:00 0°C° 0 mm 4 mps 758 mmHg 66%
    15:00 0°C° 0 mm 5 mps 758 mmHg 66%
    16:00 -1°C° 0 mm 5 mps 758 mmHg 72%
    17:00 -1°C° 0 mm 5 mps 757 mmHg 78%
    18:00 -2°C° 0 mm 5 mps 757 mmHg 83%
    19:00 -2°C° 0.1 mm 5 mps 757 mmHg 86%
    20:00 -4°C° 0.1 mm 5 mps 756 mmHg 88%
    21:00 -3°C° 0.1 mm 4 mps 756 mmHg 90%
    22:00 -3°C° 0 mm 4 mps 756 mmHg 91%
    23:00 -3°C° 0 mm 4 mps 756 mmHg 91%
    Show more